User: anonymous   Login
Location: Gollag?dem
(16.8053°N, 80.8024°E)
Time: 00:51:48
(UTC+00:00)
Language:

Delta 142 - Orbit

View from above orbital plane
View from above orbital plane
View from above satellite
View from above satellite

Ground track
Ground track

The orbit data is extracted from the following two-line orbital elements,

1 10954U 78062B   21340.26181614  .00000178  00000-0  15229-4 0  9990
2 10954  28.4308 282.4730 0698076 209.8326 146.0613 13.51059946137373
Epoch (UTC): 06 December 2021 06:17:00
Eccentricity: 0.0698076
inclination: 28.4308°
perigee height: 548 km
apogee height: 1588 km
right ascension of ascending node: 282.4730°
argument of perigee: 209.8326°
revolutions per day: 13.51059946
mean anomaly at epoch: 146.0613°
orbit number at epoch: 13737

The dashed part of the orbit path shows where the satellite is in the earth's shadow,  

DLR